User: anonymous   Login
Location: Erp
(42.9417°N, 1.2009°E)
Time: 20:36:24
(UTC+00:00)
Language:

Cosmos 1656 - Orbit

View from above orbital plane
View from above orbital plane
View from above satellite
View from above satellite

Ground track
Ground track

The orbit is defined by the following mean orbital elements,

1 15755U          26073.57181703 +.00000000 +00000-0 +69560-4 0 00006
2 15755  71.1102 115.6660 0033410 134.0217 226.3671 14.20990972    01
Epoch (UTC): 14 March 2026 13:43:24
Eccentricity: 0.0033410
inclination: 71.1102°
perigee height: 798 km
apogee height: 846 km
right ascension of ascending node: 115.6660°
argument of perigee: 134.0217°
revolutions per day: 14.20990972
mean anomaly at epoch: 226.3671°

The dashed part of the orbit path shows where the satellite is in the earth's shadow,  

DLR